發表時間 文章標題 人氣 留言
2017-07-17 置頂 Cooler Master MasterWatt Maker 1200 MIJ電源供應器-測試篇 (951) (1)
2017-07-11 置頂 Cooler Master MasterWatt Maker 1200 MIJ電源供應器-解析篇 (2391) (5)
2016-06-02 置頂 極致安全進化跨距都會小房車HONDA ALL NEW CITY VTi-S頂級款開箱(圖多) (22812) (6)
2017-08-12 全漢皇鈦極AURUM PT-1000FM拆解 (439) (1)
2017-08-11 小瓦數金牌Antec TruePower Classic 450W拆解 (532) (0)
2017-08-10 銅牌加雙DC-DC的Antec Neo ECO II 650W拆解 (813) (0)
2017-08-08 OTISAN 10000mAh QC3.0雙向快充行動電源簡介及測試 (631) (0)
2017-08-06 振華白金冰蝶750W拆解 (877) (0)
2017-08-05 振華LEADEX PLATINUM 1000W電源供應器拆解 (1244) (0)
2017-08-04 Antec High Current Pro 850 Platinum電源供應器拆解 (848) (0)
2017-07-26 曜越TT Premium Riing Plus 12 LED RGB水冷排風扇簡介及測試 (370) (0)
2017-07-26 掌握電系使用狀況,RCE汽車黑盒子簡介及測試 (5595) (2)
2017-07-18 YZXSTUDIO ZY1276 USB PD測試電壓電流表簡介及測試 (920) (3)
2017-06-02 DELL Inspiron 15 7560銀色款筆記型電腦開箱及簡測 (1482) (1)
2017-05-29 Honda City GM6自己動手安裝三色日行燈 (949) (0)
2017-05-05 米家掃地機器人開箱 (2018) (0)
2017-04-22 RCE SC-1572/SC-1520超級電容組簡介及測試 (4028) (2)
2017-04-20 LLS日日欣USB 3.1 USB-A to Type-C連接線簡測 (1080) (0)
2017-04-16 HU315N USB 3.1 Gen.2 Type-C轉雙M.2 SATA3外接盒簡測 (620) (0)
2017-04-10 汽車接地迴路阻抗不專業測試 (1082) (0)
2017-04-09 Honda CITY GM6三導光條LED尾燈組更換 (1695) (1)
2017-04-09 具備PD測試功能的Kotomi Pro雙Type-C USB電壓電流表 (1409) (1)
2017-03-31 米家行車記錄器開箱 (6512) (0)
2017-03-30 具備雙Type-C的充電頭飛龍表簡介及測試 (942) (0)
2017-03-24 OKD歐肯得Magneto Micro USB磁吸線簡介及測試 (848) (0)
2017-02-22 YZXSTUDIO彩色USB電壓電流表家族新版V3.3軟體介紹 (1252) (11)
2017-02-19 Kotomi+彩色TFT USB電流電壓表簡介及測試 (1124) (5)
2017-02-19 樂得瑞LDR-PD02 USB PD電壓觸發測試器評測 (535) (0)
2017-02-17 GRACO MILESTONE成長型兒童汽車安全座椅開箱 (951) (0)
2017-02-16 Innowatt CPB911 10050mAh智慧快充雙向QC3.0行動電源簡測 (2586) (0)
2017-02-16 DELL Inspiron 3268-R1528BTW開箱簡測及升級SSD (2110) (7)
2017-02-15 YZX ZL1100程控快充測試電子負載簡介測試 (624) (0)
2017-02-10 ASUS K31AD套裝電腦開箱拆機簡測 (3835) (5)
2017-02-04 20000mAh版小米行動電源2 PLM05ZM簡介及測試 (13355) (6)
2017-02-03 Kanade USB電壓電流表兼電子負載簡介及測試 (648) (0)
2017-02-01 OKD Magneto MH-DH磁吸式車內手機架 (692) (0)
2017-02-01 OTISAN OT03 QC3.0 42W 3埠USB快速充電器簡介及測試 (2483) (0)
2017-01-29 OKD Magneto QC2.0快充USB充電器BPSU-016W簡介及測試 (1006) (0)
2017-01-27 Bomgogo QC2.0 18W USB充電器簡介及測試 (962) (0)
2017-01-25 Kotomi多功能OLED USB電壓電流表簡介及測試 (921) (0)
2017-01-25 YZXSTUDIO ZY1271飛龍USB電壓電流表簡介及測試 (1214) (1)
2017-01-24 泰砡超級充四埠USB充電器TUE SC4P25W-TW簡介及測試 (3038) (0)
2017-01-08 Lenovo ideapad 110-15ISK筆記型電腦開箱拆機 (4309) (2)
2017-01-06 Tronsmart U5PTA QC 3.0五埠USB快速充電器簡介及測試 (2717) (2)
2016-11-04 小米行動電源2 PLM02ZM 10000mAh簡介及測試 (27655) (6)
2016-10-04 超大容量的ASUS ZenPower Max筆電快充行動電源簡介及測試 (7942) (3)
2016-09-24 HONDA CITY(GM6)專用車內LED模組更換 (1879) (2)
2016-09-24 anidees安億迪QC 2.0 AI-Charger 4+ USB四埠充電器簡介及測試 (5037) (1)
2016-09-16 YZXSTUDIO ZY1273 USB電壓電流表簡介及測試 (3607) (4)
2016-08-09 Tronsmart C2PTE QC 3.0 Type-C+VoltiQ雙埠車用充電器簡介及測試 (2700) (0)
找更多相關文章與討論